| time (UTC) | temp F | wind direction | speed knots | gust knots | rain 1hr in | rain 24hr in | rain mn in | humidity % | barometer mb |
| 20260902095523 | 73 | 113 | 2.6 | 5.2 | 0.00 | 0.00 | 0.00 | 72 | 1012.2 |
| 20260902095024 | 73 | 112 | 3.5 | 5.2 | 0.00 | 0.00 | 0.00 | 72 | 1012.2 |
| 20260902094543 | 73 | 117 | 2.6 | 5.2 | 0.00 | 0.00 | 0.00 | 72 | 1012.1 |
| 20260902094024 | 73 | 115 | 2.6 | 5.2 | 0.00 | 0.00 | 0.00 | 72 | 1012.1 |
| 20260902093524 | 73 | 109 | 2.6 | 5.2 | 0.00 | 0.00 | 0.00 | 72 | 1012.2 |
| 20260902093050 | 73 | 119 | 2.6 | 5.2 | 0.00 | 0.00 | 0.00 | 72 | 1012.1 |
| 20260902092524 | 73 | 117 | 2.6 | 5.2 | 0.00 | 0.00 | 0.00 | 71 | 1012.0 |
| 20260902092028 | 73 | 113 | 2.6 | 5.2 | 0.00 | 0.00 | 0.00 | 71 | 1012.1 |
| 20260902091545 | 74 | 110 | 2.6 | 5.2 | 0.00 | 0.00 | 0.00 | 71 | 1012.1 |
| 20260902091026 | 74 | 120 | 2.6 | 5.2 | 0.00 | 0.00 | 0.00 | 71 | 1012.0 |
| 20260902090524 | 74 | 113 | 2.6 | 5.2 | 0.00 | 0.00 | 0.00 | 71 | 1012.1 |
| 20260902090043 | 74 | 111 | 2.6 | 5.2 | 0.00 | 0.00 | 0.00 | 70 | 1012.1 |
| 20260902085524 | 74 | 111 | 2.6 | 5.2 | 0.00 | 0.00 | 0.00 | 70 | 1012.0 |
| 20260902085025 | 74 | 120 | 2.6 | 3.5 | 0.00 | 0.00 | 0.00 | 69 | 1012.0 |
| 20260902084551 | 74 | 115 | 2.6 | 5.2 | 0.00 | 0.00 | 0.00 | 69 | 1012.0 |
| 20260902084024 | 75 | 111 | 2.6 | 5.2 | 0.00 | 0.00 | 0.00 | 69 | 1011.9 |
| 20260902083524 | 75 | 119 | 2.6 | 4.3 | 0.00 | 0.00 | 0.00 | 68 | 1011.9 |
| 20260902083047 | 75 | 119 | 2.6 | 5.2 | 0.00 | 0.00 | 0.00 | 68 | 1011.9 |
| 20260902082524 | 75 | 109 | 2.6 | 5.2 | 0.00 | 0.00 | 0.00 | 67 | 1011.9 |
| 20260902082024 | 75 | 107 | 2.6 | 3.5 | 0.00 | 0.00 | 0.00 | 67 | 1011.9 |
| 20260902081549 | 75 | 108 | 2.6 | 3.5 | 0.00 | 0.00 | 0.00 | 67 | 1011.9 |
| 20260902081024 | 76 | 113 | 2.6 | 5.2 | 0.00 | 0.00 | 0.00 | 67 | 1011.9 |
| 20260902080524 | 76 | 114 | 2.6 | 5.2 | 0.00 | 0.00 | 0.00 | 66 | 1011.9 |
| 20260902080042 | 76 | 124 | 2.6 | 5.2 | 0.00 | 0.00 | 0.00 | 66 | 1011.9 |
| 20260902075524 | 76 | 114 | 2.6 | 6.1 | 0.00 | 0.00 | 0.00 | 66 | 1011.8 |
| 20260902075024 | 76 | 118 | 3.5 | 6.1 | 0.00 | 0.00 | 0.00 | 66 | 1011.8 |
| 20260902074546 | 76 | 111 | 3.5 | 7.0 | 0.00 | 0.00 | 0.00 | 65 | 1011.8 |
| 20260902074026 | 76 | 109 | 3.5 | 7.0 | 0.00 | 0.00 | 0.00 | 65 | 1011.7 |
| 20260902073525 | 77 | 108 | 4.3 | 7.0 | 0.00 | 0.00 | 0.00 | 65 | 1011.8 |
| 20260902073051 | 77 | 105 | 4.3 | 7.0 | 0.00 | 0.00 | 0.00 | 64 | 1011.8 |
| 20260902072524 | 77 | 108 | 4.3 | 7.0 | 0.00 | 0.00 | 0.00 | 64 | 1011.8 |
| 20260902072028 | 77 | 105 | 5.2 | 7.0 | 0.00 | 0.00 | 0.00 | 64 | 1011.7 |
| 20260902071543 | 77 | 109 | 4.3 | 6.1 | 0.00 | 0.00 | 0.00 | 63 | 1011.8 |
| 20260902071025 | 78 | 107 | 3.5 | 7.0 | 0.00 | 0.00 | 0.00 | 63 | 1011.8 |
| 20260902070524 | 78 | 112 | 3.5 | 7.0 | 0.00 | 0.00 | 0.00 | 63 | 1011.8 |
| 20260902070051 | 78 | 109 | 4.3 | 7.0 | 0.00 | 0.00 | 0.00 | 62 | 1011.9 |
| 20260902065524 | 78 | 107 | 3.5 | 7.0 | 0.00 | 0.00 | 0.00 | 62 | 1011.9 |
| 20260902065025 | 78 | 104 | 4.3 | 7.0 | 0.00 | 0.00 | 0.00 | 62 | 1011.9 |
| 20260902064552 | 78 | 121 | 4.3 | 7.8 | 0.00 | 0.00 | 0.00 | 62 | 1011.8 |
| 20260902064024 | 78 | 100 | 4.3 | 7.8 | 0.00 | 0.00 | 0.00 | 62 | 1011.8 |
| 20260902063524 | 78 | 113 | 5.2 | 7.8 | 0.00 | 0.00 | 0.00 | 62 | 1011.9 |
| 20260902063050 | 78 | 113 | 4.3 | 7.8 | 0.00 | 0.00 | 0.00 | 61 | 1011.8 |
| 20260902062524 | 79 | 109 | 5.2 | 7.8 | 0.00 | 0.00 | 0.00 | 61 | 1011.8 |
| 20260902062027 | 79 | 360 | 5.2 | 7.0 | 0.00 | 0.00 | 0.00 | 61 | 1011.7 |
| 20260902061604 | 79 | 119 | 4.3 | 7.8 | 0.00 | 0.00 | 0.00 | 61 | 1011.8 |
| 20260902061026 | 79 | 98 | 5.2 | 7.8 | 0.00 | 0.00 | 0.00 | 61 | 1011.8 |
| 20260902060526 | 79 | 109 | 5.2 | 8.7 | 0.00 | 0.00 | 0.00 | 61 | 1011.7 |
| 20260902060045 | 79 | 111 | 6.1 | 8.7 | 0.00 | 0.00 | 0.00 | 61 | 1011.7 |
| 20260902055525 | 79 | 106 | 6.1 | 9.6 | 0.00 | 0.00 | 0.00 | 61 | 1011.7 |
| 20260902055025 | 79 | 115 | 6.1 | 9.6 | 0.00 | 0.00 | 0.00 | 61 | 1011.7 |
| 20260902054550 | 79 | 115 | 6.1 | 8.7 | 0.00 | 0.00 | 0.00 | 61 | 1011.8 |
| 20260902054025 | 79 | 112 | 6.1 | 8.7 | 0.00 | 0.00 | 0.00 | 60 | 1011.7 |
| 20260902053524 | 79 | 127 | 5.2 | 8.7 | 0.00 | 0.00 | 0.00 | 60 | 1011.9 |
| 20260902053048 | 79 | 113 | 5.2 | 7.0 | 0.00 | 0.00 | 0.00 | 60 | 1011.7 |
| 20260902052531 | 79 | 111 | 3.5 | 7.8 | 0.00 | 0.00 | 0.00 | 59 | 1011.8 |
| 20260902052024 | 79 | 115 | 4.3 | 7.8 | 0.00 | 0.00 | 0.00 | 59 | 1011.9 |
| 20260902051544 | 79 | 110 | 5.2 | 7.8 | 0.00 | 0.00 | 0.00 | 59 | 1011.9 |
| 20260902051024 | 80 | 89 | 5.2 | 7.8 | 0.00 | 0.00 | 0.00 | 59 | 1011.9 |
| 20260902050526 | 80 | 105 | 4.3 | 7.0 | 0.00 | 0.00 | 0.00 | 58 | 1011.9 |
| 20260902050050 | 80 | 98 | 4.3 | 7.0 | 0.00 | 0.00 | 0.00 | 58 | 1011.9 |
| 20260902045523 | 80 | 117 | 4.3 | 7.8 | 0.00 | 0.00 | 0.00 | 58 | 1011.9 |
| 20260902045024 | 80 | 97 | 5.2 | 7.8 | 0.00 | 0.00 | 0.00 | 57 | 1011.9 |
| 20260902044543 | 80 | 98 | 5.2 | 7.8 | 0.00 | 0.00 | 0.00 | 57 | 1011.8 |
| 20260902044025 | 80 | 97 | 5.2 | 7.8 | 0.00 | 0.00 | 0.00 | 57 | 1011.8 |
| 20260902043529 | 80 | 91 | 5.2 | 7.8 | 0.00 | 0.00 | 0.00 | 57 | 1011.8 |
| 20260902043040 | 81 | 107 | 4.3 | 7.8 | 0.00 | 0.00 | 0.00 | 56 | 1011.8 |
| 20260902042525 | 81 | 106 | 5.2 | 7.8 | 0.00 | 0.00 | 0.00 | 56 | 1011.9 |
| 20260902042024 | 81 | 101 | 4.3 | 7.8 | 0.00 | 0.00 | 0.00 | 55 | 1011.9 |
| 20260902041545 | 81 | 104 | 4.3 | 7.0 | 0.00 | 0.00 | 0.00 | 55 | 1011.8 |
| 20260902041027 | 81 | 99 | 4.3 | 7.8 | 0.00 | 0.00 | 0.00 | 54 | 1011.8 |
| 20260902040529 | 81 | 96 | 5.2 | 7.8 | 0.00 | 0.00 | 0.00 | 54 | 1011.7 |
| 20260902040045 | 81 | 101 | 5.2 | 7.8 | 0.00 | 0.00 | 0.00 | 54 | 1011.7 |
| 20260902035525 | 82 | 101 | 5.2 | 8.7 | 0.00 | 0.00 | 0.00 | 53 | 1011.7 |
| 20260902035023 | 82 | 95 | 5.2 | 8.7 | 0.00 | 0.00 | 0.00 | 53 | 1011.8 |
| 20260902034543 | 82 | 107 | 5.2 | 8.7 | 0.00 | 0.00 | 0.00 | 52 | 1011.8 |
| 20260902034027 | 82 | 101 | 5.2 | 8.7 | 0.00 | 0.00 | 0.00 | 52 | 1011.7 |
| 20260902033524 | 82 | 95 | 6.1 | 7.8 | 0.00 | 0.00 | 0.00 | 52 | 1011.8 |
| 20260902033046 | 82 | 101 | 6.1 | 7.8 | 0.00 | 0.00 | 0.00 | 51 | 1011.8 |
| 20260902032525 | 82 | 94 | 5.2 | 7.8 | 0.00 | 0.00 | 0.00 | 51 | 1011.8 |
| 20260902032028 | 82 | 98 | 5.2 | 7.0 | 0.00 | 0.00 | 0.00 | 50 | 1011.8 |
| 20260902031547 | 82 | 102 | 4.3 | 7.0 | 0.00 | 0.00 | 0.00 | 49 | 1011.8 |
| 20260902031024 | 83 | 113 | 4.3 | 6.1 | 0.00 | 0.00 | 0.00 | 49 | 1011.7 |
| 20260902030523 | 83 | 100 | 3.5 | 7.0 | 0.00 | 0.00 | 0.00 | 49 | 1011.8 |
| 20260902030048 | 83 | 94 | 3.5 | 7.8 | 0.00 | 0.00 | 0.00 | 48 | 1011.7 |
| 20260902025524 | 83 | 92 | 5.2 | 7.8 | 0.00 | 0.00 | 0.00 | 48 | 1011.6 |
| 20260902025029 | 83 | 103 | 5.2 | 7.8 | 0.00 | 0.00 | 0.00 | 48 | 1011.5 |
| 20260902024548 | 83 | 94 | 4.3 | 7.0 | 0.00 | 0.00 | 0.00 | 48 | 1011.5 |
| 20260902024025 | 84 | 94 | 3.5 | 7.0 | 0.00 | 0.00 | 0.00 | 47 | 1011.4 |
| 20260902023523 | 84 | 94 | 4.3 | 7.0 | 0.00 | 0.00 | 0.00 | 47 | 1011.4 |
| 20260902023051 | 84 | 90 | 3.5 | 7.0 | 0.00 | 0.00 | 0.00 | 46 | 1011.3 |
| 20260902022524 | 85 | 105 | 4.3 | 7.0 | 0.00 | 0.00 | 0.00 | 46 | 1011.2 |
| 20260902022024 | 85 | 101 | 4.3 | 7.0 | 0.00 | 0.00 | 0.00 | 45 | 1011.2 |
| 20260902021544 | 85 | 100 | 4.3 | 7.0 | 0.00 | 0.00 | 0.00 | 45 | 1011.1 |
| 20260902021024 | 85 | 96 | 3.5 | 7.0 | 0.00 | 0.00 | 0.00 | 45 | 1011.0 |
| 20260902020525 | 86 | 109 | 4.3 | 7.0 | 0.00 | 0.00 | 0.00 | 44 | 1011.0 |
| 20260902020046 | 86 | 100 | 4.3 | 7.0 | 0.00 | 0.00 | 0.00 | 43 | 1010.9 |
| 20260902015527 | 86 | 101 | 4.3 | 7.8 | 0.00 | 0.00 | 0.00 | 43 | 1010.8 |
| 20260902015024 | 87 | 104 | 4.3 | 7.8 | 0.00 | 0.00 | 0.00 | 42 | 1010.8 |
| 20260902014548 | 87 | 99 | 5.2 | 8.7 | 0.00 | 0.00 | 0.00 | 42 | 1010.8 |
| 20260902014025 | 87 | 99 | 5.2 | 8.7 | 0.00 | 0.00 | 0.00 | 42 | 1010.6 |
| 20260902013523 | 88 | 88 | 4.3 | 7.0 | 0.00 | 0.00 | 0.00 | 41 | 1010.6 |
| 20260902013044 | 88 | 96 | 4.3 | 7.0 | 0.00 | 0.00 | 0.00 | 41 | 1010.6 |
| 20260902012527 | 88 | 99 | 3.5 | 7.8 | 0.00 | 0.00 | 0.00 | 41 | 1010.6 |
| 20260902012026 | 89 | 103 | 5.2 | 7.8 | 0.00 | 0.00 | 0.00 | 40 | 1010.7 |
| 20260902011549 | 90 | 100 | 4.3 | 7.8 | 0.00 | 0.00 | 0.00 | 39 | 1010.6 |
| 20260902011024 | 90 | 100 | 4.3 | 7.0 | 0.00 | 0.00 | 0.00 | 39 | 1010.7 |
| 20260902010528 | 90 | 92 | 5.2 | 8.7 | 0.00 | 0.00 | 0.00 | 38 | 1010.8 |
| 20260902010057 | 91 | 96 | 5.2 | 8.7 | 0.00 | 0.00 | 0.00 | 38 | 1010.6 |
| 20260902005525 | 91 | 113 | 5.2 | 8.7 | 0.00 | 0.00 | 0.00 | 37 | 1010.8 |
| 20260902005024 | 92 | 105 | 5.2 | 8.7 | 0.00 | 0.00 | 0.00 | 37 | 1010.8 |
| 20260902004546 | 92 | 98 | 5.2 | 9.6 | 0.00 | 0.00 | 0.00 | 36 | 1010.8 |
| 20260902004024 | 93 | 104 | 6.1 | 10.4 | 0.00 | 0.00 | 0.00 | 36 | 1010.6 |
| 20260902003525 | 94 | 107 | 7.0 | 10.4 | 0.00 | 0.00 | 0.00 | 35 | 1010.7 |
| 20260902003054 | 94 | 107 | 6.1 | 10.4 | 0.00 | 0.00 | 0.00 | 34 | 1010.8 |
| 20260902002525 | 95 | 104 | 7.0 | 10.4 | 0.00 | 0.00 | 0.00 | 34 | 1010.8 |
| 20260902002029 | 95 | 102 | 6.1 | 10.4 | 0.00 | 0.00 | 0.00 | 33 | 1010.8 |
| 20260902001547 | 95 | 114 | 7.8 | 13.9 | 0.00 | 0.00 | 0.00 | 33 | 1010.8 |
| 20260902001024 | 96 | 132 | 7.8 | 14.8 | 0.00 | 0.00 | 0.00 | 33 | 1010.8 |
| 20260902000525 | 96 | 118 | 9.6 | 16.5 | 0.00 | 0.00 | 0.00 | 32 | 1010.8 |
| 20260902000048 | 97 | 106 | 8.7 | 16.5 | 0.00 | 0.00 | 0.00 | 32 | 1010.9 |
| 20260901235525 | 97 | 103 | 8.7 | 16.5 | 0.00 | 0.00 | 0.00 | 32 | 1010.9 |
| 20260901235025 | 97 | 107 | 8.7 | 16.5 | 0.00 | 0.00 | 0.00 | 31 | 1010.8 |
| 20260901234545 | 97 | 124 | 10.4 | 16.5 | 0.00 | 0.00 | 0.00 | 31 | 1010.9 |
| 20260901234026 | 98 | 119 | 7.8 | 12.2 | 0.00 | 0.00 | 0.00 | 31 | 1010.9 |
| 20260901233526 | 98 | 108 | 7.8 | 15.6 | 0.00 | 0.00 | 0.00 | 31 | 1011.0 |
| 20260901233048 | 98 | 107 | 9.6 | 15.6 | 0.00 | 0.00 | 0.00 | 30 | 1010.9 |
| 20260901232525 | 98 | 121 | 6.1 | 13.9 | 0.00 | 0.00 | 0.00 | 30 | 1011.0 |
| 20260901232026 | 99 | 116 | 7.0 | 14.8 | 0.00 | 0.00 | 0.00 | 30 | 1010.9 |
| 20260901231545 | 99 | 138 | 9.6 | 14.8 | 0.00 | 0.00 | 0.00 | 30 | 1011.0 |
| 20260901231024 | 99 | 123 | 7.8 | 15.6 | 0.00 | 0.00 | 0.00 | 29 | 1011.0 |
| 20260901230525 | 99 | 105 | 9.6 | 15.6 | 0.00 | 0.00 | 0.00 | 29 | 1011.1 |
| 20260901230045 | 100 | 101 | 8.7 | 13.9 | 0.00 | 0.00 | 0.00 | 29 | 1011.0 |
| 20260901225524 | 100 | 94 | 8.7 | 14.8 | 0.00 | 0.00 | 0.00 | 29 | 1011.0 |
| 20260901225027 | 100 | 99 | 9.6 | 14.8 | 0.00 | 0.00 | 0.00 | 29 | 1011.0 |
| 20260901224551 | 100 | 112 | 10.4 | 17.4 | 0.00 | 0.00 | 0.00 | 29 | 1010.9 |
| 20260901224025 | 100 | 121 | 7.8 | 17.4 | 0.00 | 0.00 | 0.00 | 29 | 1011.0 |
| 20260901223525 | 100 | 126 | 10.4 | 17.4 | 0.00 | 0.00 | 0.00 | 28 | 1011.0 |
| 20260901223046 | 100 | 101 | 6.1 | 13.9 | 0.00 | 0.00 | 0.00 | 29 | 1011.0 |
| 20260901222525 | 100 | 106 | 7.8 | 14.8 | 0.00 | 0.00 | 0.00 | 29 | 1011.0 |
| 20260901222025 | 100 | 139 | 7.8 | 15.6 | 0.00 | 0.00 | 0.00 | 28 | 1011.0 |
| 20260901221555 | 100 | 130 | 7.0 | 17.4 | 0.00 | 0.00 | 0.00 | 27 | 1011.0 |
| 20260901221024 | 101 | 142 | 10.4 | 17.4 | 0.00 | 0.00 | 0.00 | 27 | 1011.2 |
| 20260901220524 | 101 | 121 | 9.6 | 18.2 | 0.00 | 0.00 | 0.00 | 27 | 1011.1 |
| 20260901220043 | 101 | 115 | 7.8 | 19.1 | 0.00 | 0.00 | 0.00 | 28 | 1011.1 |
| 20260901215525 | 101 | 111 | 12.2 | 19.1 | 0.00 | 0.00 | 0.00 | 28 | 1011.1 |
| 20260901215026 | 102 | 123 | 7.0 | 14.8 | 0.00 | 0.00 | 0.00 | 27 | 1011.1 |
| 20260901214557 | 102 | 115 | 8.7 | 13.0 | 0.00 | 0.00 | 0.00 | 27 | 1011.2 |
| 20260901214024 | 103 | 121 | 7.0 | 18.2 | 0.00 | 0.00 | 0.00 | 27 | 1011.2 |
| 20260901213524 | 102 | 113 | 9.6 | 18.2 | 0.00 | 0.00 | 0.00 | 27 | 1011.2 |
| 20260901213047 | 102 | 134 | 9.6 | 19.1 | 0.00 | 0.00 | 0.00 | 27 | 1011.3 |
| 20260901212524 | 102 | 141 | 7.8 | 19.1 | 0.00 | 0.00 | 0.00 | 27 | 1011.2 |
| 20260901212028 | 103 | 132 | 7.0 | 19.1 | 0.00 | 0.00 | 0.00 | 26 | 1011.3 |
| 20260901211543 | 102 | 128 | 9.6 | 20.0 | 0.00 | 0.00 | 0.00 | 26 | 1011.4 |
| 20260901211024 | 102 | 99 | 10.4 | 20.0 | 0.00 | 0.00 | 0.00 | 27 | 1011.5 |
| 20260901210525 | 102 | 142 | 11.3 | 20.0 | 0.00 | 0.00 | 0.00 | 26 | 1011.5 |
| 20260901205525 | 101 | 132 | 6.1 | 13.9 | 0.00 | 0.00 | 0.00 | 27 | 1011.6 |
| 20260901205026 | 101 | 117 | 7.8 | 20.9 | 0.00 | 0.00 | 0.00 | 28 | 1011.8 |
| 20260901204544 | 102 | 154 | 10.4 | 20.9 | 0.00 | 0.00 | 0.00 | 26 | 1011.8 |
| 20260901204030 | 102 | 132 | 7.0 | 18.2 | 0.00 | 0.00 | 0.00 | 27 | 1011.8 |
| 20260901203524 | 102 | 142 | 11.3 | 18.2 | 0.00 | 0.00 | 0.00 | 27 | 1012.0 |
| 20260901203045 | 102 | 133 | 8.7 | 17.4 | 0.00 | 0.00 | 0.00 | 26 | 1012.0 |
| 20260901202524 | 102 | 138 | 9.6 | 16.5 | 0.00 | 0.00 | 0.00 | 27 | 1011.9 |
| 20260901202026 | 102 | 114 | 7.8 | 17.4 | 0.00 | 0.00 | 0.00 | 27 | 1012.1 |
| 20260901201546 | 102 | 109 | 10.4 | 17.4 | 0.00 | 0.00 | 0.00 | 27 | 1012.2 |
| 20260901201024 | 102 | 122 | 10.4 | 18.2 | 0.00 | 0.00 | 0.00 | 27 | 1012.3 |
| 20260901200524 | 102 | 128 | 10.4 | 20.9 | 0.00 | 0.00 | 0.00 | 26 | 1012.2 |
| 20260901200044 | 102 | 155 | 9.6 | 20.9 | 0.00 | 0.00 | 0.00 | 28 | 1012.3 |
| 20260901195527 | 102 | 157 | 9.6 | 19.1 | 0.00 | 0.00 | 0.00 | 27 | 1012.3 |
| 20260901195025 | 103 | 150 | 9.6 | 20.9 | 0.00 | 0.00 | 0.00 | 26 | 1012.4 |
| 20260901194552 | 103 | 137 | 12.2 | 20.9 | 0.00 | 0.00 | 0.00 | 27 | 1012.4 |
| 20260901194023 | 103 | 123 | 9.6 | 17.4 | 0.00 | 0.00 | 0.00 | 28 | 1012.4 |
| 20260901193524 | 102 | 166 | 7.0 | 20.0 | 0.00 | 0.00 | 0.00 | 27 | 1012.6 |
| 20260901193046 | 103 | 162 | 11.3 | 20.0 | 0.00 | 0.00 | 0.00 | 27 | 1012.8 |
| 20260901192524 | 102 | 165 | 7.8 | 20.0 | 0.00 | 0.00 | 0.00 | 27 | 1012.7 |
| 20260901192025 | 100 | 105 | 4.3 | 23.5 | 0.00 | 0.00 | 0.00 | 29 | 1012.7 |
| 20260901191550 | 102 | 161 | 10.4 | 23.5 | 0.00 | 0.00 | 0.00 | 28 | 1012.8 |
| 20260901191025 | 103 | 126 | 13.0 | 23.5 | 0.00 | 0.00 | 0.00 | 27 | 1012.9 |
| 20260901190527 | 103 | 173 | 9.6 | 20.0 | 0.00 | 0.00 | 0.00 | 27 | 1012.9 |
| 20260901190051 | 101 | 132 | 7.0 | 20.0 | 0.00 | 0.00 | 0.00 | 28 | 1012.9 |
| 20260901185525 | 103 | 147 | 7.8 | 17.4 | 0.00 | 0.00 | 0.00 | 28 | 1012.9 |
| 20260901185025 | 102 | 140 | 11.3 | 19.1 | 0.00 | 0.00 | 0.00 | 28 | 1012.9 |
| 20260901184550 | 102 | 134 | 9.6 | 20.9 | 0.00 | 0.00 | 0.00 | 29 | 1013.0 |
| 20260901184024 | 103 | 153 | 11.3 | 20.9 | 0.00 | 0.00 | 0.00 | 27 | 1013.0 |
| 20260901183525 | 101 | 126 | 9.6 | 18.2 | 0.00 | 0.00 | 0.00 | 29 | 1013.0 |
| 20260901183102 | 100 | 138 | 9.6 | 17.4 | 0.00 | 0.00 | 0.00 | 30 | 1013.2 |
| 20260901182524 | 99 | 161 | 8.7 | 17.4 | 0.00 | 0.00 | 0.00 | 30 | 1013.3 |
| 20260901182026 | 100 | 138 | 12.2 | 17.4 | 0.00 | 0.00 | 0.00 | 30 | 1013.3 |
| 20260901181543 | 99 | 125 | 9.6 | 16.5 | 0.00 | 0.00 | 0.00 | 32 | 1013.4 |
| 20260901181023 | 98 | 129 | 8.7 | 15.6 | 0.00 | 0.00 | 0.00 | 32 | 1013.5 |
| 20260901180528 | 98 | 142 | 7.8 | 16.5 | 0.00 | 0.00 | 0.00 | 31 | 1013.5 |
| 20260901180043 | 99 | 150 | 7.8 | 16.5 | 0.00 | 0.00 | 0.00 | 30 | 1013.6 |
| 20260901175528 | 98 | 142 | 7.8 | 18.2 | 0.00 | 0.00 | 0.00 | 31 | 1013.5 |
| 20260901175025 | 98 | 148 | 10.4 | 18.2 | 0.00 | 0.00 | 0.00 | 31 | 1013.6 |
| 20260901174542 | 99 | 134 | 9.6 | 17.4 | 0.00 | 0.00 | 0.00 | 32 | 1013.6 |
| 20260901174024 | 99 | 132 | 7.0 | 15.6 | 0.00 | 0.00 | 0.00 | 33 | 1013.7 |
| 20260901173529 | 99 | 148 | 10.4 | 15.6 | 0.00 | 0.00 | 0.00 | 32 | 1013.8 |
| 20260901173045 | 99 | 142 | 7.8 | 20.0 | 0.00 | 0.00 | 0.00 | 33 | 1013.8 |
| 20260901172524 | 99 | 119 | 10.4 | 20.0 | 0.00 | 0.00 | 0.00 | 33 | 1013.8 |
| 20260901172024 | 99 | 132 | 10.4 | 14.8 | 0.00 | 0.00 | 0.00 | 34 | 1013.9 |
| 20260901171542 | 99 | 156 | 7.8 | 21.7 | 0.00 | 0.00 | 0.00 | 34 | 1013.9 |
| 20260901171024 | 98 | 97 | 8.7 | 21.7 | 0.00 | 0.00 | 0.00 | 34 | 1013.9 |
| 20260901170524 | 98 | 149 | 11.3 | 21.7 | 0.00 | 0.00 | 0.00 | 35 | 1013.9 |
| 20260901170049 | 98 | 153 | 8.7 | 20.9 | 0.00 | 0.00 | 0.00 | 36 | 1014.0 |
| 20260901165525 | 97 | 146 | 8.7 | 19.1 | 0.00 | 0.00 | 0.00 | 37 | 1014.0 |
| 20260901165025 | 97 | 135 | 13.0 | 20.0 | 0.00 | 0.00 | 0.00 | 36 | 1014.1 |
| 20260901164547 | 97 | 155 | 11.3 | 23.5 | 0.00 | 0.00 | 0.00 | 37 | 1014.1 |
| 20260901164026 | 97 | 148 | 10.4 | 23.5 | 0.00 | 0.00 | 0.00 | 36 | 1014.2 |
| 20260901163524 | 97 | 112 | 10.4 | 18.2 | 0.00 | 0.00 | 0.00 | 36 | 1014.2 |
| 20260901163053 | 97 | 140 | 8.7 | 21.7 | 0.00 | 0.00 | 0.00 | 36 | 1014.2 |
| 20260901162523 | 97 | 160 | 9.6 | 21.7 | 0.00 | 0.00 | 0.00 | 37 | 1014.3 |
| 20260901162027 | 96 | 168 | 10.4 | 21.7 | 0.00 | 0.00 | 0.00 | 36 | 1014.4 |
| 20260901161553 | 96 | 161 | 10.4 | 18.2 | 0.00 | 0.00 | 0.00 | 37 | 1014.3 |
| 20260901161023 | 96 | 142 | 10.4 | 18.2 | 0.00 | 0.00 | 0.00 | 37 | 1014.3 |
| 20260901160530 | 96 | 148 | 11.3 | 18.2 | 0.00 | 0.00 | 0.00 | 37 | 1014.2 |
| 20260901160044 | 96 | 154 | 8.7 | 18.2 | 0.00 | 0.00 | 0.00 | 37 | 1014.3 |
| 20260901155523 | 96 | 109 | 7.8 | 18.2 | 0.00 | 0.00 | 0.00 | 39 | 1014.2 |
| 20260901155027 | 95 | 136 | 10.4 | 20.0 | 0.00 | 0.00 | 0.00 | 39 | 1014.3 |
| 20260901154610 | 95 | 146 | 11.3 | 20.0 | 0.00 | 0.00 | 0.00 | 39 | 1014.3 |
| 20260901154025 | 94 | 167 | 8.7 | 18.2 | 0.00 | 0.00 | 0.00 | 39 | 1014.3 |
| 20260901153526 | 94 | 135 | 7.8 | 16.5 | 0.00 | 0.00 | 0.00 | 40 | 1014.3 |
| 20260901153049 | 93 | 130 | 8.7 | 16.5 | 0.00 | 0.00 | 0.00 | 41 | 1014.3 |
| 20260901152525 | 93 | 159 | 8.7 | 16.5 | 0.00 | 0.00 | 0.00 | 41 | 1014.3 |
| 20260901152025 | 93 | 151 | 7.0 | 13.0 | 0.00 | 0.00 | 0.00 | 42 | 1014.4 |
| 20260901151544 | 92 | 122 | 7.8 | 15.6 | 0.00 | 0.00 | 0.00 | 42 | 1014.4 |
| 20260901151025 | 92 | 141 | 7.8 | 15.6 | 0.00 | 0.00 | 0.00 | 43 | 1014.4 |
| 20260901150524 | 92 | 148 | 7.0 | 15.6 | 0.00 | 0.00 | 0.00 | 43 | 1014.3 |
| 20260901150054 | 91 | 138 | 6.1 | 13.9 | 0.00 | 0.00 | 0.00 | 43 | 1014.4 |
| 20260901145526 | 90 | 167 | 7.0 | 13.9 | 0.00 | 0.00 | 0.00 | 44 | 1014.4 |
| 20260901145027 | 90 | 134 | 8.7 | 13.9 | 0.00 | 0.00 | 0.00 | 45 | 1014.4 |
| 20260901144547 | 89 | 133 | 5.2 | 13.0 | 0.00 | 0.00 | 0.00 | 46 | 1014.4 |
| 20260901144025 | 88 | 135 | 6.1 | 12.2 | 0.00 | 0.00 | 0.00 | 47 | 1014.4 |
| 20260901143526 | 88 | 157 | 7.0 | 12.2 | 0.00 | 0.00 | 0.00 | 48 | 1014.4 |
| 20260901143046 | 87 | 118 | 7.0 | 12.2 | 0.00 | 0.00 | 0.00 | 49 | 1014.5 |
| 20260901142524 | 86 | 121 | 6.1 | 10.4 | 0.00 | 0.00 | 0.00 | 51 | 1014.6 |
| 20260901142025 | 85 | 119 | 4.3 | 10.4 | 0.00 | 0.00 | 0.00 | 52 | 1014.6 |
| 20260901141556 | 84 | 142 | 4.3 | 8.7 | 0.00 | 0.00 | 0.00 | 54 | 1014.6 |
| 20260901141026 | 83 | 134 | 5.2 | 8.7 | 0.00 | 0.00 | 0.00 | 56 | 1014.6 |
| 20260901140526 | 82 | 150 | 5.2 | 8.7 | 0.00 | 0.00 | 0.00 | 56 | 1014.5 |
| 20260901140056 | 81 | 132 | 2.6 | 7.8 | 0.00 | 0.00 | 0.00 | 59 | 1014.6 |
| 20260901135523 | 80 | 121 | 2.6 | 7.0 | 0.00 | 0.00 | 0.00 | 60 | 1014.6 |
| 20260901135026 | 79 | 134 | 2.6 | 7.0 | 0.00 | 0.00 | 0.00 | 62 | 1014.6 |
| 20260901134546 | 78 | 117 | 2.6 | 7.0 | 0.00 | 0.00 | 0.00 | 63 | 1014.6 |
| 20260901134023 | 77 | 114 | 1.7 | 7.0 | 0.00 | 0.00 | 0.00 | 65 | 1014.6 |
| 20260901133525 | 76 | 118 | 2.6 | 7.0 | 0.00 | 0.00 | 0.00 | 67 | 1014.6 |
| 20260901133045 | 75 | 125 | 3.5 | 7.0 | 0.00 | 0.00 | 0.00 | 68 | 1014.6 |
| 20260901132524 | 74 | 121 | 2.6 | 7.0 | 0.00 | 0.00 | 0.00 | 69 | 1014.6 |
| 20260901132025 | 73 | 114 | 2.6 | 6.1 | 0.00 | 0.00 | 0.00 | 72 | 1014.6 |
| 20260901131543 | 73 | 134 | 2.6 | 5.2 | 0.00 | 0.00 | 0.00 | 73 | 1014.5 |
| 20260901131024 | 72 | 108 | 1.7 | 3.5 | 0.00 | 0.00 | 0.00 | 74 | 1014.6 |
| 20260901130530 | 71 | 126 | 1.7 | 3.5 | 0.00 | 0.00 | 0.00 | 76 | 1014.6 |
| 20260901130043 | 71 | 111 | 1.7 | 5.2 | 0.00 | 0.00 | 0.00 | 77 | 1014.5 |
| 20260901125520 | 70 | 115 | 1.7 | 5.2 | 0.00 | 0.00 | 0.00 | 78 | 1014.5 |
| 20260901125025 | 69 | 116 | 2.6 | 5.2 | 0.00 | 0.00 | 0.00 | 78 | 1014.4 |
| 20260901124548 | 69 | 115 | 3.5 | 5.2 | 0.00 | 0.00 | 0.00 | 79 | 1014.4 |
| 20260901124024 | 69 | 111 | 1.7 | 5.2 | 0.00 | 0.00 | 0.00 | 79 | 1014.2 |
| 20260901123521 | 69 | 104 | 2.6 | 5.2 | 0.00 | 0.00 | 0.00 | 79 | 1014.3 |
| 20260901123046 | 68 | 108 | 2.6 | 3.5 | 0.00 | 0.00 | 0.00 | 78 | 1014.2 |
| 20260901122529 | 68 | 111 | 1.7 | 3.5 | 0.00 | 0.00 | 0.00 | 78 | 1014.1 |
| 20260901122028 | 68 | 118 | 1.7 | 2.6 | 0.00 | 0.00 | 0.00 | 78 | 1014.1 |
| 20260901121542 | 68 | 111 | 1.7 | 2.6 | 0.00 | 0.00 | 0.00 | 78 | 1014.0 |
| 20260901121025 | 68 | 108 | 1.7 | 2.6 | 0.00 | 0.00 | 0.00 | 78 | 1013.9 |
| 20260901120525 | 68 | 107 | 1.7 | 2.6 | 0.00 | 0.00 | 0.00 | 78 | 1013.8 |
| 20260901120100 | 68 | 107 | 1.7 | 2.6 | 0.00 | 0.00 | 0.00 | 78 | 1013.8 |
| 20260901115526 | 68 | 109 | 1.7 | 2.6 | 0.00 | 0.00 | 0.00 | 78 | 1013.8 |
| 20260901115028 | 68 | 105 | 1.7 | 3.5 | 0.00 | 0.00 | 0.00 | 78 | 1013.8 |
| 20260901114545 | 68 | 108 | 1.7 | 3.5 | 0.00 | 0.00 | 0.00 | 78 | 1013.8 |
| 20260901114026 | 68 | 108 | 1.7 | 3.5 | 0.00 | 0.00 | 0.00 | 78 | 1013.9 |
| 20260901113526 | 68 | 111 | 1.7 | 2.6 | 0.00 | 0.00 | 0.00 | 78 | 1013.8 |
| 20260901113054 | 68 | 112 | 0.9 | 2.6 | 0.00 | 0.00 | 0.00 | 78 | 1013.8 |
| 20260901112522 | 68 | 112 | 1.7 | 2.6 | 0.00 | 0.00 | 0.00 | 77 | 1013.8 |
| 20260901112024 | 69 | 119 | 1.7 | 2.6 | 0.00 | 0.00 | 0.00 | 77 | 1013.7 |
| 20260901111547 | 69 | 116 | 0.9 | 1.7 | 0.00 | 0.00 | 0.00 | 76 | 1013.7 |
| 20260901111024 | 69 | 116 | 0.9 | 1.7 | 0.00 | 0.00 | 0.00 | 76 | 1013.7 |
| 20260901110525 | 69 | 116 | 0.9 | 2.6 | 0.00 | 0.00 | 0.00 | 76 | 1013.7 |
| 20260901110050 | 69 | 116 | 0.9 | 2.6 | 0.00 | 0.00 | 0.00 | 76 | 1013.6 |
| 20260901105524 | 69 | 116 | 1.7 | 2.6 | 0.00 | 0.00 | 0.00 | 75 | 1013.5 |
| 20260901105024 | 69 | 116 | 1.7 | 2.6 | 0.00 | 0.00 | 0.00 | 75 | 1013.6 |
| 20260901104544 | 70 | 116 | 1.7 | 2.6 | 0.00 | 0.00 | 0.00 | 75 | 1013.6 |
| 20260901104025 | 70 | 116 | 1.7 | 2.6 | 0.00 | 0.00 | 0.00 | 75 | 1013.5 |
| 20260901103525 | 70 | 117 | 1.7 | 3.5 | 0.00 | 0.00 | 0.00 | 74 | 1013.5 |
| 20260901103054 | 70 | 111 | 1.7 | 3.5 | 0.00 | 0.00 | 0.00 | 74 | 1013.4 |
| 20260901102525 | 70 | 116 | 1.7 | 3.5 | 0.00 | 0.00 | 0.00 | 74 | 1013.4 |
| 20260901102024 | 70 | 107 | 1.7 | 5.2 | 0.00 | 0.00 | 0.00 | 74 | 1013.3 |
| 20260901101548 | 70 | 109 | 1.7 | 5.2 | 0.00 | 0.00 | 0.00 | 74 | 1013.3 |
| 20260901101122 | 70 | 112 | 2.6 | 5.2 | 0.00 | 0.00 | 0.00 | 74 | 1013.3 |
| 20260901100527 | 71 | 112 | 2.6 | 5.2 | 0.00 | 0.00 | 0.00 | 74 | 1013.3 |